カタリナ彗星

C/2013 L2 ( Catalina )

English version
Home page
Updated on May 7, 2015

---------------------------------------------------------------------

・ プロフィール

発見日 2013年6月2日
発見光度 19.6等
発見者 R. A. Kowalski (Catalina Sky Survey)

・ 写真集

・ 軌道要素

Epoch 2012 Apr. 23.0 TT = JDT 2456040.5
T 2012 May 11.41423 TT                                  MPC
q   4.8728894            (2000.0)            P               Q
z  -0.0002107      Peri.    1.96810     +0.26380063     -0.28667467
 +/-0.0000212      Node   285.87207     -0.89754818     -0.42267196
e   1.0010265      Incl.  106.76475     -0.35329377     +0.85974766
From 231 observations 2013 June 2-Oct. 1, mean residual 0".4.

・ 光度変化

        m1 = 8.0 + 5 logΔ + 10.0 log r

---------------------------------------------------------------------

軌道要素はM.P.E.C. 2014-G32に掲載されたものです。
光度グラフはComet for Windowsで作成したものです。

---------------------------------------------------------------------

Copyright(C) Seiichi Yoshida (comet@aerith.net). All rights reserved.